H1 CPF 2 COD 2024 1 15 2 15 1 galileo215 NONE
H2 1707901 7215 43055 2024 1 14 23 59 42 2024 1 19 23 59 42 900 1 1 0 0 0 1
H5 0.5555
H9
10 0 60326  75582.000000  0  -14281762.627  15761799.176 -20589753.415
10 0 60326  76482.000000  0  -16048040.258  16042614.228 -19010297.408
10 0 60326  77382.000000  0  -17640781.418  16413538.935 -17194458.047
10 0 60326  78282.000000  0  -19036944.551  16847205.571 -15164791.910
10 0 60326  79182.000000  0  -20218891.958  17313060.409 -12946519.545
10 0 60326  80082.000000  0  -21174888.378  17778355.974 -10567213.057
10 0 60326  80982.000000  0  -21899416.540  18209214.891  -8056454.048
10 0 60326  81882.000000  0  -22393299.759  18571731.920  -5445466.126
10 0 60326  82782.000000  0  -22663627.717  18833079.553  -2766726.521
10 0 60326  83682.000000  0  -22723487.735  18962582.375    -53561.674
10 0 60326  84582.000000  0  -22591509.967  18932726.368   2660268.124
10 0 60326  85482.000000  0  -22291240.809  18720071.302   5340989.806
10 0 60326  86382.000000  0  -21850364.232  18306037.445   7955238.965
10 0 60327    882.000000  0  -21299795.552  17677541.717  10470476.328
10 0 60327   1782.000000  0  -20672676.162  16827463.189  12855393.950
10 0 60327   2682.000000  0  -20003300.897  15754923.150  15080306.014
10 0 60327   3582.000000  0  -19326011.786  14465370.852  17117519.256
10 0 60327   4482.000000  0  -18674093.030  12970472.138  18941678.385
10 0 60327   5382.000000  0  -18078701.962  11287804.329  20530082.139
10 0 60327   6282.000000  0  -17567869.601   9440366.890  21862966.048
10 0 60327   7182.000000  0  -17165602.226   7455923.122  22923748.396
10 0 60327   8082.000000  0  -16891112.151   5366193.442  23699236.355
10 0 60327   8982.000000  0  -16758201.858   3205925.450  24179789.764
10 0 60327   9882.000000  0  -16774820.783   1011869.830  24359440.572
10 0 60327  10782.000000  0  -16942808.629  -1178305.949  24235966.504
10 0 60327  11682.000000  0  -17257833.226  -3327132.206  23810918.072
10 0 60327  12582.000000  0  -17709524.857  -5398445.147  23089598.640
10 0 60327  13482.000000  0  -18281802.795  -7358453.890  22080997.808
10 0 60327  14382.000000  0  -18953383.798  -9176733.177  20797678.946
10 0 60327  15282.000000  0  -19698456.574 -10827110.814  19255622.298
10 0 60327  16182.000000  0  -20487501.051 -12288422.193  17474025.587
10 0 60327  17082.000000  0  -21288226.733 -13545108.424  15475064.597
10 0 60327  17982.000000  0  -22066600.682 -14587639.476  13283616.719
10 0 60327  18882.000000  0  -22787932.868 -15412749.231  10926950.883
10 0 60327  19782.000000  0  -23417984.799 -16023475.226   8434387.771
10 0 60327  20682.000000  0  -23924066.640 -16429002.002   5836934.533
10 0 60327  21582.000000  0  -24276088.372 -16644313.122   3166898.616
10 0 60327  22482.000000  0  -24447531.982 -16689662.924    457485.523
10 0 60327  23382.000000  0  -24416314.199 -16589884.727  -2257614.412
10 0 60327  24282.000000  0  -24165512.676 -16373557.333  -4944645.085
10 0 60327  25182.000000  0  -23683932.866 -16072056.095  -7570204.231
10 0 60327  26082.000000  0  -22966497.824 -15718518.414 -10101658.361
10 0 60327  26982.000000  0  -22014448.717 -15346756.210 -12507547.842
10 0 60327  27882.000000  0  -20835349.782 -14990149.528 -14757977.115
10 0 60327  28782.000000  0  -19442897.572 -14680555.990 -16824985.215
10 0 60327  29682.000000  0  -17856540.457 -14447270.302 -18682892.074
10 0 60327  30582.000000  0  -16100920.264 -14316066.414 -20308616.358
10 0 60327  31482.000000  0  -14205153.462 -14308352.306 -21681961.012
10 0 60327  32382.000000  0  -12201974.307 -14440463.874 -22785863.040
10 0 60327  33282.000000  0  -10126766.613 -14723119.983 -23606604.545
10 0 60327  34182.000000  0   -8016514.292 -15161055.766 -24133982.482
10 0 60327  35082.000000  0   -5908703.287 -15752845.656 -24361435.092
10 0 60327  35982.000000  0   -3840209.055 -16490921.738 -24286123.505
10 0 60327  36882.000000  0   -1846204.171 -17361786.935 -23908967.501
10 0 60327  37782.000000  0      40879.977 -18346416.450 -23234634.963
10 0 60327  38682.000000  0    1792305.112 -19420835.049 -22271485.128
10 0 60327  39582.000000  0    3383861.992 -20556852.247 -21031466.224
10 0 60327  40482.000000  0    4796564.310 -21722932.550 -19529968.685
10 0 60327  41382.000000  0    6017178.935 -22885173.632 -17785635.633
10 0 60327  42282.000000  0    7038575.961 -24008361.953 -15820132.855
10 0 60327  43182.000000  0    7859887.630 -25057072.839 -13657881.009
10 0 60327  44082.000000  0    8486471.155 -25996780.592 -11325753.282
10 0 60327  44982.000000  0    8929676.615 -26794943.890  -8852742.162
10 0 60327  45882.000000  0    9206427.196 -27422032.372  -6269599.413
10 0 60327  46782.000000  0    9338624.953 -27852462.191  -3608453.707
10 0 60327  47682.000000  0    9352400.765 -28065411.079   -902410.677
10 0 60327  48582.000000  0    9277232.079 -28045487.235   1814859.597
10 0 60327  49482.000000  0    9144956.212 -27783230.943   4509542.455
10 0 60327  50382.000000  0    8988710.295 -27275433.051   7148100.573
10 0 60327  51282.000000  0    8841831.268 -26525260.203   9697692.573
10 0 60327  52182.000000  0    8736750.615 -25542182.820  12126582.998
10 0 60327  53082.000000  0    8703918.675 -24341708.011  14404538.480
10 0 60327  53982.000000  0    8770792.466 -22944925.745  16503205.051
10 0 60327  54882.000000  0    8960918.935 -21377882.491  18396461.860
10 0 60327  55782.000000  0    9293142.515 -19670801.956  20060746.851
10 0 60327  56682.000000  0    9780962.004 -17857177.333  21475350.315
10 0 60327  57582.000000  0   10432056.993 -15972763.505  22622672.697
10 0 60327  58482.000000  0   11247998.816 -14054500.754  23488443.454
10 0 60327  59382.000000  0   12224155.121 -12139403.668  24061898.293
10 0 60327  60282.000000  0   13349791.124 -10263449.983  24335912.635
10 0 60327  61182.000000  0   14608364.426  -8460504.080  24307089.684
10 0 60327  62082.000000  0   15978004.195  -6761308.762  23975802.062
10 0 60327  62982.000000  0   17432159.745  -5192576.752  23346186.529
10 0 60327  63882.000000  0   18940398.257  -3776210.234  22426091.871
10 0 60327  64782.000000  0   20469326.685  -2528672.734  21226980.628
10 0 60327  65682.000000  0   21983609.018  -1460532.868  19763785.882
10 0 60327  66582.000000  0   23447047.079   -576194.080  18054724.891
10 0 60327  67482.000000  0   24823691.038    126181.308  16121071.865
10 0 60327  68382.000000  0   26078944.884    654551.517  13986892.720
10 0 60327  69282.000000  0   27180632.241   1022682.144  11678745.102
10 0 60327  70182.000000  0   28099989.165   1249650.370   9225347.423
10 0 60327  71082.000000  0   28812552.836   1359182.259   6657221.051
10 0 60327  71982.000000  0   29298918.318   1378844.068   4006310.133
10 0 60327  72882.000000  0   29545339.708   1339113.088   1305583.826
10 0 60327  73782.000000  0   29544156.884   1272357.298  -1411374.065
10 0 60327  74682.000000  0   29294034.527   1211755.963  -4110782.894
10 0 60327  75582.000000  0   28800005.995   1190195.137  -6759085.180
10 0 60327  76482.000000  0   28073320.743   1239172.833  -9323363.556
10 0 60327  77382.000000  0   27131100.141   1387748.231 -11771749.471
10 0 60327  78282.000000  0   25995812.539   1661567.957 -14073818.558
10 0 60327  79182.000000  0   24694584.057   2081999.977 -16200967.783
10 0 60327  80082.000000  0   23258366.730   2665402.285 -18126769.762
10 0 60327  80982.000000  0   21720990.021   3422549.310 -19827299.892
10 0 60327  81882.000000  0   20118125.376   4358234.038 -21281432.340
10 0 60327  82782.000000  0   18486196.145   5471058.349 -22471101.315
10 0 60327  83682.000000  0   16861266.881   6753418.175 -23381524.477
10 0 60327  84582.000000  0   15277946.629   8191684.044 -24001385.802
10 0 60327  85482.000000  0   13768340.380   9766571.465 -24322975.724
10 0 60327  86382.000000  0   12361081.330  11453689.714 -24342286.860
10 0 60328    882.000000  0   11080474.067  13224252.031 -24059064.153
10 0 60328   1782.000000  0    9945775.372  15045925.208 -23476808.819
10 0 60328   2682.000000  0    8970635.006  16883792.189 -22602735.987
10 0 60328   3582.000000  0    8162713.923  18701397.796 -21447686.502
10 0 60328   4482.000000  0    7523491.801  20461845.034 -20025993.876
10 0 60328   5382.000000  0    7048269.895  22128907.852 -18355307.922
10 0 60328   6282.000000  0    6726369.145  23668125.668 -16456377.136
10 0 60328   7182.000000  0    6541517.335  25047845.467 -14352792.405
10 0 60328   8082.000000  0    6472413.209  26240178.914 -12070695.097
10 0 60328   8982.000000  0    6493449.879  27221844.487  -9638453.079
10 0 60328   9882.000000  0    6575574.823  27974868.233  -7086308.611
10 0 60328  10782.000000  0    6687259.503  28487121.115  -4446002.471
10 0 60328  11682.000000  0    6795548.097  28752676.053  -1750378.964
10 0 60328  12582.000000  0    6867152.359  28771973.377    967023.212
10 0 60328  13482.000000  0    6869558.121  28551789.458   3672389.119
10 0 60328  14382.000000  0    6772108.553  28105009.434   6332049.435
10 0 60328  15282.000000  0    6547030.011  27450211.165   8912900.688
10 0 60328  16182.000000  0    6170368.105  26611073.451  11382818.512
10 0 60328  17082.000000  0    5622804.408  25615627.126  13711058.689
10 0 60328  17982.000000  0    4890328.031  24495372.557  15868640.898
10 0 60328  18882.000000  0    3964740.810  23284291.295  17828710.307
10 0 60328  19782.000000  0    2843980.138  22017782.953  19566872.474
10 0 60328  20682.000000  0    1532249.176  20731560.680  21061497.358
10 0 60328  21582.000000  0      39950.265  19460539.940  22293988.657
10 0 60328  22482.000000  0   -1616576.469  18237755.438  23249015.140
10 0 60328  23382.000000  0   -3415501.211  17093340.142  23914701.136
10 0 60328  24282.000000  0   -5330125.303  16053598.382  24282773.859
10 0 60328  25182.000000  0   -7329655.460  15140202.017  24348665.782
10 0 60328  26082.000000  0   -9380107.218  14369534.791  24111570.841
99